Wind_Speed
5 5 5 5 5 5 5 5 5 5 5 6 7 8 9 10 10 11 11 12 12 12 12 12 11 11 11 10 10 9 9 8 7 8 8 8 9 10 11 12 13 14 15
6 6 6 6 6 6 6 5 5 5 6 6 7 8 9 10 11 11 12 12 12 12 12 12 12 12 12 12 11 10 9 9 8 8 8 8 9 10 11 11 13 14 15
7 7 7 7 7 7 7 6 6 6 7 7 8 9 10 11 11 12 13 13 13 13 13 13 13 13 12 12 11 10 10 10 9 9 10 10 10 11 12 13 14 14 15
8 8 8 8 8 8 8 8 8 8 8 8 9 10 10 11 12 12 13 14 14 14 14 14 14 13 13 13 12 12 11 11 11 11 11 12 12 12 13 14 15 16 17
9 9 9 9 9 9 9 9 9 9 9 10 10 11 11 12 13 14 14 15 15 15 15 15 15 14 14 13 13 13 13 13 13 13 13 13 14 14 15 16 17 18 18
11 10 10 10 10 10 10 10 11 11 11 11 12 12 13 13 14 15 15 16 16 16 16 16 16 16 15 15 15 15 15 15 15 15 15 16 16 16 17 18 19 20 20
12 11 11 11 11 12 12 12 12 12 13 13 13 13 14 15 16 17 17 17 17 17 17 17 17 17 17 17 17 17 17 17 17 18 18 18 19 20 20 20 21 22 23
13 13 13 13 13 13 14 14 14 14 14 15 15 15 16 16 17 18 18 18 19 19 19 18 18 18 18 19 19 20 20 20 20 20 20 21 21 22 23 23 23 24 25
14 14 14 15 15 15 15 15 16 16 16 17 17 18 18 18 19 20 20 20 21 21 21 20 20 20 21 21 21 22 22 22 23 23 24 24 24 24 25 26 26 27 28
15 15 16 16 16 16 16 17 18 18 18 19 19 20 21 21 21 22 22 23 23 22 22 22 23 23 24 24 24 25 25 25 25 25 26 26 27 27 28 29 30 30 31
16 17 17 17 17 18 18 19 20 20 20 21 21 22 23 23 23 24 24 25 24 24 24 24 25 25 26 26 27 27 27 27 27 27 28 28 29 30 31 31 32 33 34
18 18 18 18 19 19 20 21 21 22 22 22 23 24 24 25 25 26 26 26 26 26 26 26 27 27 28 29 29 30 30 30 30 30 31 31 31 32 33 34 35 36 36
20 20 20 20 21 21 22 23 23 24 24 24 25 25 26 27 27 27 28 28 28 28 28 28 29 30 31 31 32 32 33 33 33 33 34 34 34 34 35 36 36 37 37
22 22 22 22 23 24 24 25 25 26 26 26 27 27 28 28 29 29 29 29 29 30 30 31 32 33 33 34 34 35 35 35 36 36 36 37 37 37 38 38 38 38 38
23 24 24 24 25 25 26 26 27 27 28 28 28 29 29 30 30 31 31 32 32 32 33 33 34 35 36 36 36 37 37 37 38 38 39 39 39 39 39 39 40 40 40
25 25 26 26 26 26 27 28 28 29 29 30 30 31 31 31 32 33 33 34 34 35 35 36 36 37 37 38 38 39 39 39 40 40 41 41 41 41 41 41 41 41 41
26 26 26 27 27 28 28 29 29 30 31 31 32 33 33 34 34 34 35 35 35 36 36 37 38 38 39 40 40 41 41 41 42 42 43 43 43 43 43 42 42 42 42
26 27 27 27 28 29 29 30 31 32 32 33 34 34 34 35 35 35 36 36 36 37 38 38 39 40 40 41 42 42 43 43 44 44 44 44 44 44 43 43 43 43 43
28 28 29 29 30 31 32 32 33 33 34 35 35 35 35 36 36 37 37 37 37 38 39 39 40 41 42 43 43 44 45 45 45 45 45 44 43 43 43 43 43 43 43
29 30 30 31 32 33 33 34 35 35 36 36 36 36 37 37 38 38 38 38 39 40 40 41 42 43 44 44 45 46 47 47 46 45 44 43 43 43 44 44 43 43 43
32 33 33 34 34 35 35 35 36 36 36 37 37 38 38 38 39 39 39 40 41 41 42 42 43 44 45 46 47 48 48 47 46 44 43 43 43 44 44 44 44 44 43
35 35 36 36 36 36 36 37 37 37 38 38 39 39 40 40 40 41 42 42 43 43 44 44 45 46 47 48 49 49 48 47 45 44 44 44 44 44 45 45 45 45 44
35 36 36 37 37 38 38 38 39 39 39 40 41 41 41 42 42 43 43 43 44 45 46 47 47 48 49 50 50 50 48 47 46 46 45 45 45 46 46 46 45 45 43
36 37 37 38 39 39 39 40 40 41 42 42 42 42 42 43 43 43 44 45 46 46 47 48 49 50 51 50 50 49 48 48 47 47 46 47 47 46 46 46 45 45 43
37 38 38 39 39 40 40 41 42 42 43 44 43 43 44 44 44 45 46 47 47 48 48 49 50 51 51 50 49 48 48 47 47 47 47 47 47 46 46 46 45 43 42
39 39 40 40 40 41 41 42 43 44 44 44 44 45 45 46 47 47 48 48 48 49 49 50 50 50 50 49 48 48 48 47 47 47 47 47 47 47 46 45 43 42 41
Wind_Direction
238 247 251 255 262 271 277 288 302 310 318 326 335 337 339 339 338 339 340 341 340 340 341 342 341 338 337 335 331 325 321 315 307 297 291 282 272 266 259 255 253 252 250
239 244 249 258 265 272 276 282 292 301 307 315 326 330 333 335 337 338 338 336 336 337 338 338 338 336 334 334 331 325 321 318 311 304 297 289 284 274 268 263 259 257 255
238 244 250 257 264 271 273 274 280 289 297 306 316 323 328 332 334 335 334 333 332 332 332 332 332 331 330 329 328 324 320 316 311 306 298 291 290 283 273 269 265 264 262
240 246 252 257 260 267 269 270 277 284 292 300 307 314 320 325 326 327 328 328 328 328 327 327 328 327 325 322 321 319 316 312 309 307 301 297 292 286 281 275 272 268 265
244 248 254 258 262 266 268 271 277 283 290 296 302 308 313 317 321 323 324 324 324 324 323 324 325 324 322 319 317 315 313 310 307 305 301 300 297 291 284 279 277 275 270
249 251 255 260 263 265 268 272 278 284 289 294 299 304 308 312 316 319 320 320 320 321 321 320 321 320 318 316 313 310 308 307 305 301 298 296 294 293 289 284 280 277 275
249 252 257 261 263 265 268 273 278 283 288 293 297 300 303 307 311 315 316 316 316 316 317 316 315 315 315 314 313 310 307 306 304 301 297 295 293 291 290 288 284 281 279
251 254 257 261 266 269 269 272 276 282 286 290 293 297 300 303 308 310 312 313 313 312 312 312 312 310 310 311 311 309 307 304 302 300 297 295 293 292 290 289 286 283 280
254 257 260 262 267 270 270 273 276 280 285 288 291 294 298 301 305 307 308 309 308 308 308 308 309 308 307 307 308 308 307 304 302 300 297 295 294 293 292 289 287 286 283
257 260 261 263 267 269 271 274 277 280 284 287 289 292 295 298 301 303 305 306 306 305 304 304 305 305 305 306 305 305 304 303 301 300 298 296 295 295 293 291 289 287 285
259 261 261 264 267 269 272 275 278 280 283 285 288 291 293 296 298 300 301 303 303 302 302 303 303 304 305 305 304 303 302 301 300 299 299 298 297 296 294 293 291 289 287
261 264 265 267 269 271 274 277 279 282 283 285 287 289 292 294 296 298 299 300 300 300 300 301 302 303 304 304 303 302 301 300 299 298 297 297 297 296 296 295 294 293 291
261 263 266 268 271 274 276 278 280 283 284 285 286 289 291 293 295 296 298 298 299 299 299 299 300 301 302 302 302 301 300 300 300 299 297 297 296 296 296 296 295 294 292
262 264 267 269 272 275 277 279 281 283 284 285 287 289 291 292 293 295 297 297 297 297 297 298 299 300 301 302 302 301 300 300 300 299 299 298 297 296 296 295 294 293 291
264 266 268 271 274 276 277 279 281 282 283 284 286 288 290 291 292 294 295 296 296 296 297 297 299 299 300 301 301 301 301 300 300 299 298 298 297 296 296 295 294 293 291
266 268 270 273 275 276 277 278 280 282 283 285 287 288 290 291 292 294 295 295 295 295 296 297 298 299 299 300 300 301 301 301 300 299 298 297 297 296 296 295 293 293 292
268 270 272 273 275 277 277 279 281 282 283 285 286 288 290 291 292 293 294 295 295 296 297 298 299 299 300 300 300 300 301 301 300 299 298 297 296 295 294 294 293 292 292
268 270 273 273 274 276 278 279 281 282 283 285 286 288 289 290 291 293 294 295 295 296 297 298 299 300 300 300 300 300 301 301 300 299 299 297 296 295 294 293 293 292 291
268 270 273 274 275 278 279 280 281 282 283 285 286 288 289 290 291 292 293 294 296 296 297 298 299 300 300 301 301 301 301 301 300 300 299 297 296 295 294 294 293 292 291
269 271 273 275 277 279 280 282 282 283 284 285 286 287 288 289 290 292 293 294 295 296 298 299 299 300 301 301 301 301 302 301 301 299 298 298 297 296 295 294 293 292 291
270 272 274 276 277 279 281 282 283 283 284 285 286 287 287 288 290 291 293 294 295 296 297 299 299 300 301 301 302 302 302 301 300 299 297 297 297 296 296 295 293 293 292
271 273 274 276 277 278 280 281 282 283 284 285 286 287 287 288 289 290 291 293 294 295 296 298 299 299 300 301 301 301 301 300 299 299 298 297 296 296 296 295 294 293 291
273 274 275 276 277 279 281 282 282 283 284 285 286 287 288 289 289 291 292 293 294 295 296 297 298 299 300 300 300 300 300 299 298 298 298 297 297 296 296 295 294 292 290
274 276 277 278 278 280 282 282 282 283 284 285 286 287 288 289 290 291 292 293 294 295 296 297 298 299 300 300 299 299 299 299 298 297 297 296 296 296 295 294 293 292 289
275 276 278 279 280 281 282 282 282 283 284 285 286 287 288 288 289 290 291 292 294 295 296 297 298 299 299 299 298 298 298 298 297 297 296 296 296 295 294 294 293 291 289
275 276 277 279 280 281 281 282 283 284 284 285 285 286 286 287 288 290 292 293 294 295 296 297 297 298 298 298 298 297 297 297 297 297 296 297 296 295 294 294 293 291 290
Height
5875 5876 5876 5877 5877 5876 5876 5876 5875 5875 5874 5872 5871 5870 5868 5866 5864 5862 5860 5857 5855 5852 5850 5848 5845 5843 5841 5839 5837 5835 5834 5833 5832 5831 5830 5830 5829 5829 5829 5830 5830 5831 5831
5874 5874 5874 5875 5875 5875 5874 5874 5874 5873 5872 5871 5870 5868 5867 5865 5863 5861 5858 5856 5853 5851 5849 5846 5844 5842 5839 5837 5835 5833 5832 5831 5830 5829 5828 5828 5827 5826 5826 5826 5827 5827 5828
5872 5872 5873 5873 5873 5873 5872 5872 5872 5871 5870 5869 5868 5867 5865 5863 5861 5859 5857 5854 5852 5849 5847 5844 5842 5840 5837 5835 5833 5831 5830 5828 5827 5826 5825 5825 5824 5824 5823 5823 5823 5823 5824
5870 5870 5870 5871 5871 5871 5870 5870 5870 5869 5868 5867 5866 5864 5863 5861 5859 5857 5855 5852 5849 5847 5844 5842 5840 5837 5835 5833 5831 5829 5827 5826 5824 5823 5822 5822 5821 5820 5820 5819 5819 5819 5819
5867 5868 5868 5868 5868 5868 5868 5868 5867 5867 5866 5865 5863 5862 5860 5858 5856 5854 5852 5850 5847 5844 5842 5839 5837 5835 5832 5830 5828 5826 5825 5823 5822 5820 5819 5818 5817 5816 5815 5815 5814 5814 5814
5864 5865 5865 5865 5865 5865 5865 5865 5864 5864 5863 5862 5861 5859 5857 5855 5853 5851 5849 5847 5844 5842 5839 5837 5834 5832 5830 5827 5825 5823 5821 5820 5818 5817 5815 5814 5813 5812 5810 5809 5809 5808 5808
5861 5862 5862 5862 5862 5862 5862 5862 5861 5860 5860 5859 5857 5856 5854 5852 5850 5848 5846 5843 5841 5838 5836 5833 5831 5829 5826 5824 5821 5819 5817 5815 5814 5812 5811 5809 5808 5806 5805 5804 5803 5802 5801
5858 5858 5858 5858 5858 5858 5858 5858 5857 5857 5856 5855 5854 5852 5850 5848 5846 5844 5842 5839 5837 5834 5832 5830 5827 5825 5822 5820 5817 5815 5812 5810 5808 5807 5805 5803 5801 5800 5798 5797 5796 5795 5794
5854 5854 5854 5854 5854 5854 5854 5854 5853 5852 5851 5850 5849 5848 5846 5844 5842 5839 5837 5835 5832 5830 5827 5825 5823 5820 5818 5815 5813 5810 5807 5804 5802 5800 5798 5796 5794 5793 5791 5790 5788 5787 5786
5850 5850 5850 5850 5850 5850 5850 5849 5848 5848 5847 5846 5844 5843 5841 5839 5837 5834 5832 5830 5827 5825 5822 5820 5817 5815 5812 5810 5807 5804 5801 5798 5795 5793 5790 5788 5786 5784 5782 5781 5779 5777 5776
5845 5845 5845 5845 5845 5845 5844 5844 5843 5842 5841 5840 5839 5837 5835 5833 5831 5829 5826 5824 5821 5819 5816 5814 5811 5809 5806 5803 5800 5797 5794 5791 5789 5786 5783 5781 5778 5776 5773 5771 5768 5766 5764
5840 5840 5840 5840 5840 5839 5839 5838 5838 5837 5836 5834 5833 5831 5829 5827 5825 5822 5820 5817 5815 5812 5810 5807 5805 5802 5799 5796 5793 5790 5786 5783 5780 5778 5775 5772 5769 5767 5764 5761 5757 5754 5751
5834 5835 5835 5835 5834 5834 5833 5832 5831 5830 5829 5828 5826 5824 5822 5820 5818 5815 5813 5810 5808 5805 5803 5800 5797 5794 5791 5788 5784 5781 5778 5775 5772 5769 5766 5763 5759 5756 5753 5750 5747 5743 5740
5828 5829 5829 5828 5828 5827 5827 5826 5825 5823 5822 5820 5819 5817 5815 5813 5810 5808 5805 5802 5800 5797 5795 5792 5789 5785 5782 5779 5775 5772 5768 5765 5762 5758 5755 5752 5748 5745 5742 5739 5735 5732 5729
5822 5822 5822 5821 5821 5820 5819 5818 5817 5816 5814 5813 5811 5809 5807 5805 5802 5799 5796 5794 5791 5788 5785 5783 5779 5776 5773 5769 5765 5761 5758 5754 5751 5747 5744 5740 5737 5733 5730 5726 5723 5719 5716
5815 5815 5814 5814 5813 5812 5811 5810 5809 5808 5806 5804 5802 5800 5798 5796 5793 5790 5787 5784 5781 5779 5776 5773 5769 5766 5762 5758 5754 5751 5746 5742 5739 5735 5731 5728 5724 5721 5717 5713 5709 5706 5703
5807 5807 5806 5806 5805 5804 5803 5802 5801 5799 5797 5795 5793 5791 5789 5786 5783 5780 5778 5775 5771 5768 5765 5762 5759 5755 5751 5747 5743 5739 5735 5731 5726 5722 5718 5714 5711 5707 5703 5700 5696 5693 5690
5799 5799 5798 5797 5797 5796 5795 5793 5792 5790 5789 5786 5784 5781 5779 5776 5774 5771 5768 5765 5762 5758 5755 5751 5748 5744 5740 5736 5731 5727 5723 5718 5714 5709 5705 5701 5696 5693 5689 5686 5682 5679 5676
5791 5791 5790 5789 5788 5787 5786 5784 5782 5781 5779 5777 5774 5772 5769 5766 5763 5761 5757 5755 5751 5748 5744 5741 5737 5732 5728 5724 5719 5715 5710 5706 5701 5696 5691 5687 5683 5679 5675 5672 5669 5665 5662
5782 5782 5781 5780 5779 5777 5776 5774 5772 5770 5768 5766 5764 5762 5759 5756 5753 5750 5747 5744 5740 5737 5733 5729 5725 5721 5716 5712 5707 5702 5697 5692 5687 5682 5678 5674 5670 5665 5662 5658 5655 5651 5648
5773 5772 5771 5770 5769 5767 5765 5764 5762 5760 5758 5755 5753 5750 5748 5745 5742 5739 5736 5732 5729 5725 5721 5717 5713 5709 5704 5699 5694 5689 5684 5679 5674 5669 5665 5661 5657 5653 5649 5645 5641 5638 5634
5762 5762 5761 5760 5758 5756 5754 5753 5751 5749 5746 5744 5742 5739 5736 5733 5730 5727 5724 5720 5717 5713 5709 5705 5701 5696 5691 5686 5681 5675 5670 5665 5661 5656 5652 5648 5644 5640 5636 5632 5628 5624 5621
5751 5750 5749 5748 5747 5745 5743 5741 5739 5737 5735 5732 5729 5727 5724 5721 5718 5714 5711 5708 5704 5700 5696 5692 5687 5683 5678 5672 5667 5661 5657 5652 5648 5643 5639 5635 5631 5626 5622 5618 5614 5611 5607
5740 5739 5737 5736 5734 5733 5731 5729 5727 5724 5722 5719 5717 5714 5711 5708 5705 5702 5698 5695 5691 5687 5683 5678 5674 5669 5664 5658 5653 5648 5643 5638 5634 5629 5625 5621 5617 5613 5608 5604 5600 5597 5593
5728 5727 5725 5724 5722 5720 5718 5716 5714 5712 5709 5706 5704 5701 5698 5695 5692 5689 5685 5681 5677 5673 5669 5664 5659 5654 5649 5644 5639 5634 5629 5624 5620 5615 5611 5607 5603 5599 5595 5591 5587 5583 5580
5716 5714 5713 5711 5709 5708 5705 5703 5701 5698 5695 5693 5690 5687 5684 5681 5678 5675 5671 5667 5663 5659 5655 5650 5645 5640 5635 5630 5625 5621 5616 5611 5606 5602 5597 5593 5589 5585 5581 5577 5574 5571 5568